JAISAT-1 (44419 NORAD) Tracking and Keplerian Element Data

This shows tracking and keplerian element data for the satellite.

Feedback or suggestion? Click here.




ElementValue
Catalog44419
NameJAISAT-1
Epoch Orbit18679
Epoch Day324.87105296
Epoch Year2022
RAAN296.6974
Inclination97.6544
Eccentricity0.0016388
Argument of Perigee316.9194
Mean Anonmoly43.0757
Mean Motion15.20334458
Decay Rate0.00010022
L11 44419U 19038F 22324.87105296 .00010022 00000+0 46224-3 0 9999
L22 44419 97.6544 296.6974 0016388 316.9194 43.0757 15.20334458186793



Live tracking and technical data element details for JAISAT-1 (NORAD 44419). JAISAT-1 can be tracked NOW for your location showing map with azimuth and elevation plus other details from your city location.







IsCatalogInMostPopularTable: catalog: 44419, numindb: 258
Update: records affected: 1



GetName: 44419 JAISAT-1

Hit Count: updated at: Fri, 02 Dec 2022 13:33:54 GMT